sat.trackr.live / text

‹ back to catalog

STARLINK-32583

NORAD 61955 · 2024-209S

PAYLOAD ACTIVE UNKNOWN

§ Identity

Operator
Country
US
Launch date
2024-11-14
Launch site
AFWTR
Launch vehicle
Mass (kg)
RCS (m²)

Purposes: comms

External: N2YO · Heavens-Above · Gunter

§ Orbital elements

Epoch: 2026-05-24T23:56:29.368032Z

Period
93.37 min
Inclination
53.1592°
Eccentricity
0.0001137
Mean motion
15.42183612 rev/d
Perigee alt
438.9 km
Apogee alt
440.4 km
Semi-major
6,817.8 km
B*
1.0660e-3
RAAN
145.5680°
Arg perigee
77.6120°
Mean anomaly
282.5013°
Rev number
8,662

§ Raw data

STARLINK-325831 61955U 24209S   26144.99756213  .00046294  00000+0  10660-2 0  99912 61955  53.1592 145.5680 0001137  77.6120 282.5013 15.42183612 86623

JSON: /api/v1/satellites/61955 · /tle

For live sub-satellite position, see the globe view (requires WebGL).

§ Visibility from observer

Set your observer location to see the next 7 days of passes ≥ 10°. The values pass through the URL so the page stays shareable.

No JS? Fill the form by hand. The geolocation button needs JavaScript.